Time,TemperatureF,DewpointF,PressureIn,WindDirection,WindDirectionDegrees,WindSpeedMPH,WindSpeedGustMPH,Humidity,HourlyPrecipIn,Conditions,Clouds,dailyrainin,SoftwareType,DateUTC
2015-04-18 00:00:00,76.0,72.2,30.04,North,360,0.0,1.0,88,0.00,,SKC,0.00,VWS V15.00,2015-04-18 04:00:00,
2015-04-18 00:01:00,76.0,72.2,30.03,North,360,2.0,2.0,88,0.00,,SKC,0.00,VWS V15.00,2015-04-18 04:01:00,
2015-04-18 00:02:00,76.0,72.2,30.04,North,360,0.0,2.0,88,0.00,,SKC,0.00,VWS V15.00,2015-04-18 04:02:00,
2015-04-18 00:03:00,76.0,72.2,30.04,North,360,0.0,1.0,88,0.00,,SKC,0.00,VWS V15.00,2015-04-18 04:03:00,
2015-04-18 00:04:00,76.0,72.2,30.03,North,360,2.0,2.0,88,0.00,,SKC,0.00,VWS V15.00,2015-04-18 04:04:00,
2015-04-18 00:05:00,76.0,72.2,30.04,North,360,2.0,2.0,88,0.00,,SKC,0.00,VWS V15.00,2015-04-18 04:05:00,
2015-04-18 00:06:00,76.0,72.2,30.03,North,360,2.0,2.0,88,0.00,,SKC,0.00,VWS V15.00,2015-04-18 04:06:00,
2015-04-18 00:07:00,76.0,72.2,30.04,North,360,2.0,2.0,88,0.00,,SKC,0.00,VWS V15.00,2015-04-18 04:07:00,
2015-04-18 00:08:00,76.0,72.2,30.04,North,360,2.0,2.0,88,0.00,,SKC,0.00,VWS V15.00,2015-04-18 04:08:00,
2015-04-18 00:09:00,76.0,72.2,30.03,North,360,3.0,3.0,88,0.00,,SKC,0.00,VWS V15.00,2015-04-18 04:09:00,
2015-04-18 00:10:00,76.0,72.2,30.04,North,360,3.0,3.0,88,0.00,,SKC,0.00,VWS V15.00,2015-04-18 04:10:00,
2015-04-18 00:11:00,76.0,72.2,30.04,North,360,2.0,3.0,88,0.00,,SKC,0.00,VWS V15.00,2015-04-18 04:11:00,
2015-04-18 00:12:00,76.0,72.2,30.04,North,360,3.0,3.0,88,0.00,,SKC,0.00,VWS V15.00,2015-04-18 04:12:00,
2015-04-18 00:13:00,76.0,72.5,30.04,NNW,337,2.0,3.0,89,0.00,,SKC,0.00,VWS V15.00,2015-04-18 04:13:00,
2015-04-18 00:14:00,75.0,71.5,30.04,NNW,337,2.0,3.0,89,0.00,,SKC,0.00,VWS V15.00,2015-04-18 04:14:00,
2015-04-18 00:15:00,76.0,72.5,30.04,NNW,337,3.0,4.0,89,0.00,,SKC,0.00,VWS V15.00,2015-04-18 04:15:00,
2015-04-18 00:16:00,76.0,72.5,30.04,NNW,337,4.0,4.0,89,0.00,,SKC,0.00,VWS V15.00,2015-04-18 04:16:00,
2015-04-18 00:17:00,76.0,72.5,30.04,NNW,337,3.0,4.0,89,0.00,,SKC,0.00,VWS V15.00,2015-04-18 04:17:00,
2015-04-18 00:18:00,76.0,72.5,30.04,NNW,337,3.0,5.0,89,0.00,,SKC,0.00,VWS V15.00,2015-04-18 04:18:00,
2015-04-18 00:19:00,76.0,72.5,30.04,NNW,337,4.0,4.0,89,0.00,,SKC,0.00,VWS V15.00,2015-04-18 04:19:00,
2015-04-18 00:20:00,76.0,72.5,30.04,NNW,337,3.0,4.0,89,0.00,,SKC,0.00,VWS V15.00,2015-04-18 04:20:00,
2015-04-18 00:21:00,76.0,72.5,30.04,NNW,337,4.0,5.0,89,0.00,,SKC,0.00,VWS V15.00,2015-04-18 04:21:00,
2015-04-18 00:22:00,76.0,72.5,30.04,NNW,337,3.0,4.0,89,0.00,,SKC,0.00,VWS V15.00,2015-04-18 04:22:00,
2015-04-18 00:23:00,76.0,72.5,30.04,NNW,337,3.0,4.0,89,0.00,,SKC,0.00,VWS V15.00,2015-04-18 04:23:00,
2015-04-18 00:24:00,76.0,72.5,30.04,NNW,337,2.0,3.0,89,0.00,,SKC,0.00,VWS V15.00,2015-04-18 04:24:00,
2015-04-18 00:25:00,76.0,72.5,30.04,NNW,337,4.0,4.0,89,0.00,,SKC,0.00,VWS V15.00,2015-04-18 04:25:00,
2015-04-18 00:26:00,76.0,72.5,30.04,NNW,337,3.0,5.0,89,0.00,,SKC,0.00,VWS V15.00,2015-04-18 04:26:00,
2015-04-18 00:27:00,76.0,72.5,30.04,NNW,337,2.0,5.0,89,0.00,,SKC,0.00,VWS V15.00,2015-04-18 04:27:00,
2015-04-18 00:28:00,76.0,72.5,30.04,NNW,337,3.0,3.0,89,0.00,,SKC,0.00,VWS V15.00,2015-04-18 04:28:00,
2015-04-18 00:29:00,76.0,72.5,30.04,NNW,337,2.0,3.0,89,0.00,,SKC,0.00,VWS V15.00,2015-04-18 04:29:00,
2015-04-18 00:30:00,75.0,71.5,30.05,NNW,337,4.0,4.0,89,0.00,,SKC,0.00,VWS V15.00,2015-04-18 04:30:00,
2015-04-18 00:31:00,75.0,71.5,30.04,NNW,337,0.0,4.0,89,0.00,,SKC,0.00,VWS V15.00,2015-04-18 04:31:00,
2015-04-18 00:32:00,75.0,71.5,30.04,NNW,337,1.0,1.0,89,0.00,,SKC,0.00,VWS V15.00,2015-04-18 04:32:00,
2015-04-18 00:33:00,75.0,71.5,30.04,NNW,337,2.0,2.0,89,0.00,,SKC,0.00,VWS V15.00,2015-04-18 04:33:00,
2015-04-18 00:34:00,75.0,71.5,30.04,NNW,337,2.0,2.0,89,0.00,,SKC,0.00,VWS V15.00,2015-04-18 04:34:00,
2015-04-18 00:35:00,75.0,71.5,30.04,NNW,337,2.0,3.0,89,0.00,,SKC,0.00,VWS V15.00,2015-04-18 04:35:00,
2015-04-18 00:36:00,75.0,71.5,30.04,NNW,337,2.0,2.0,89,0.00,,SKC,0.00,VWS V15.00,2015-04-18 04:36:00,
2015-04-18 00:37:00,75.0,71.5,30.04,NNW,337,2.0,2.0,89,0.00,,SKC,0.00,VWS V15.00,2015-04-18 04:37:00,
2015-04-18 00:38:00,75.0,71.5,30.04,NNW,337,0.0,2.0,89,0.00,,SKC,0.00,VWS V15.00,2015-04-18 04:38:00,
2015-04-18 00:39:00,75.0,71.9,30.04,NNW,337,0.0,0.0,90,0.00,,SKC,0.00,VWS V15.00,2015-04-18 04:39:00,
2015-04-18 00:40:00,75.0,71.9,30.04,NNW,337,3.0,3.0,90,0.00,,SKC,0.00,VWS V15.00,2015-04-18 04:40:00,
2015-04-18 00:41:00,75.0,71.9,30.04,NNW,337,2.0,3.0,90,0.00,,SKC,0.00,VWS V15.00,2015-04-18 04:41:00,
2015-04-18 00:42:00,75.0,71.9,30.04,NNW,337,2.0,2.0,90,0.00,,SKC,0.00,VWS V15.00,2015-04-18 04:42:00,
2015-04-18 00:43:00,75.0,71.9,30.04,NNW,337,2.0,2.0,90,0.00,,SKC,0.00,VWS V15.00,2015-04-18 04:43:00,
2015-04-18 00:44:00,75.0,71.9,30.04,NNW,337,0.0,2.0,90,0.00,,SKC,0.00,VWS V15.00,2015-04-18 04:44:00,
2015-04-18 00:45:00,75.0,71.9,30.04,NNW,337,0.0,1.0,90,0.00,,SKC,0.00,VWS V15.00,2015-04-18 04:45:00,
2015-04-18 00:46:00,75.0,71.9,30.04,NNW,337,0.0,1.0,90,0.00,,SKC,0.00,VWS V15.00,2015-04-18 04:46:00,
2015-04-18 00:47:00,75.0,71.9,30.03,NNW,337,0.0,1.0,90,0.00,,SKC,0.00,VWS V15.00,2015-04-18 04:47:00,
2015-04-18 00:48:00,75.0,71.9,30.04,NNW,337,0.0,0.0,90,0.00,,SKC,0.00,VWS V15.00,2015-04-18 04:48:00,
2015-04-18 00:49:00,75.0,71.9,30.04,NNW,337,1.0,1.0,90,0.00,,SKC,0.00,VWS V15.00,2015-04-18 04:49:00,
2015-04-18 00:50:00,75.0,71.9,30.04,NNW,337,1.0,2.0,90,0.00,,SKC,0.00,VWS V15.00,2015-04-18 04:50:00,
2015-04-18 00:51:00,75.0,71.9,30.04,NNW,337,1.0,1.0,90,0.00,,SKC,0.00,VWS V15.00,2015-04-18 04:51:00,
2015-04-18 00:52:00,75.0,71.9,30.04,NNW,337,1.0,2.0,90,0.00,,SKC,0.00,VWS V15.00,2015-04-18 04:52:00,
2015-04-18 00:53:00,75.0,71.9,30.04,NNW,337,2.0,2.0,90,0.00,,SKC,0.00,VWS V15.00,2015-04-18 04:53:00,
2015-04-18 00:54:00,75.0,71.9,30.04,NNW,337,2.0,2.0,90,0.00,,SKC,0.00,VWS V15.00,2015-04-18 04:54:00,
2015-04-18 00:55:00,75.0,71.9,30.03,NNW,337,0.0,3.0,90,0.00,,SKC,0.00,VWS V15.00,2015-04-18 04:55:00,
2015-04-18 00:56:00,75.0,71.9,30.03,NNW,337,1.0,2.0,90,0.00,,SKC,0.00,VWS V15.00,2015-04-18 04:56:00,
2015-04-18 00:57:00,75.0,71.9,30.03,NNW,337,0.0,2.0,90,0.00,,SKC,0.00,VWS V15.00,2015-04-18 04:57:00,
2015-04-18 00:58:00,75.0,71.9,30.03,NNW,337,0.0,0.0,90,0.00,,SKC,0.00,VWS V15.00,2015-04-18 04:58:00,
2015-04-18 00:59:00,75.0,71.9,30.03,NNW,337,0.0,0.0,90,0.00,,SKC,0.00,VWS V15.00,2015-04-18 04:59:00,
2015-04-18 01:00:00,75.0,71.9,30.03,NNW,337,0.0,0.0,90,0.00,,SKC,0.00,VWS V15.00,2015-04-18 05:00:00,
2015-04-18 01:01:00,75.0,71.9,30.03,NNW,337,0.0,0.0,90,63.87,,SKC,0.00,VWS V15.00,2015-04-18 05:01:00,
2015-04-18 01:02:00,75.0,71.9,30.03,NNW,337,0.0,0.0,90,0.00,,SKC,0.00,VWS V15.00,2015-04-18 05:02:00,
2015-04-18 01:03:00,75.0,71.9,30.03,NNW,337,0.0,0.0,90,0.00,,SKC,0.00,VWS V15.00,2015-04-18 05:03:00,
2015-04-18 01:04:00,75.0,71.9,30.03,NNW,337,0.0,0.0,90,0.00,,SKC,0.00,VWS V15.00,2015-04-18 05:04:00,
2015-04-18 01:05:00,75.0,71.9,30.03,NNW,337,0.0,0.0,90,0.00,,SKC,0.00,VWS V15.00,2015-04-18 05:05:00,
2015-04-18 01:06:00,75.0,71.9,30.03,NNW,337,0.0,0.0,90,0.00,,SKC,0.00,VWS V15.00,2015-04-18 05:06:00,
2015-04-18 01:07:00,75.0,71.9,30.02,NNW,337,0.0,0.0,90,0.00,,SKC,0.00,VWS V15.00,2015-04-18 05:07:00,
2015-04-18 01:08:00,75.0,71.9,30.03,NNW,337,0.0,0.0,90,0.00,,SKC,0.00,VWS V15.00,2015-04-18 05:08:00,
2015-04-18 01:09:00,75.0,72.2,30.03,NNW,337,0.0,0.0,91,0.00,,SKC,0.00,VWS V15.00,2015-04-18 05:09:00,
2015-04-18 01:10:00,75.0,72.2,30.02,NNW,337,0.0,0.0,91,0.00,,SKC,0.00,VWS V15.00,2015-04-18 05:10:00,
2015-04-18 01:11:00,75.0,72.2,30.03,NNW,337,0.0,0.0,91,0.00,,SKC,0.00,VWS V15.00,2015-04-18 05:11:00,
2015-04-18 01:12:00,75.0,72.2,30.03,NNW,337,0.0,0.0,91,0.00,,SKC,0.00,VWS V15.00,2015-04-18 05:12:00,
2015-04-18 01:13:00,75.0,72.2,30.03,NNW,337,0.0,0.0,91,0.00,,SKC,0.00,VWS V15.00,2015-04-18 05:13:00,
2015-04-18 01:14:00,75.0,72.2,30.03,NNW,337,0.0,0.0,91,0.00,,SKC,0.00,VWS V15.00,2015-04-18 05:14:00,
2015-04-18 01:15:00,75.0,72.2,30.03,NNW,337,0.0,0.0,91,0.00,,SKC,0.00,VWS V15.00,2015-04-18 05:15:00,
2015-04-18 01:16:00,75.0,72.2,30.03,NNW,337,0.0,0.0,91,0.00,,SKC,0.00,VWS V15.00,2015-04-18 05:16:00,
2015-04-18 01:17:00,75.0,72.2,30.03,NNW,337,0.0,0.0,91,0.00,,SKC,0.00,VWS V15.00,2015-04-18 05:17:00,
2015-04-18 01:18:00,75.0,72.2,30.02,NW,315,0.0,1.0,91,0.00,,SKC,0.00,VWS V15.00,2015-04-18 05:18:00,
2015-04-18 01:19:00,75.0,72.2,30.03,NW,315,0.0,1.0,91,0.00,,SKC,0.00,VWS V15.00,2015-04-18 05:19:00,
2015-04-18 01:20:00,75.0,72.2,30.03,NW,315,0.0,1.0,91,0.00,,SKC,0.00,VWS V15.00,2015-04-18 05:20:00,
2015-04-18 01:21:00,75.0,72.2,30.03,NW,315,1.0,1.0,91,0.00,,SKC,0.00,VWS V15.00,2015-04-18 05:21:00,
2015-04-18 01:22:00,75.0,72.2,30.03,NW,315,1.0,1.0,91,0.00,,SKC,0.00,VWS V15.00,2015-04-18 05:22:00,
2015-04-18 01:23:00,75.0,72.2,30.03,WNW,292,2.0,2.0,91,0.00,,SKC,0.00,VWS V15.00,2015-04-18 05:23:00,
2015-04-18 01:24:00,75.0,72.2,30.03,WNW,292,3.0,3.0,91,0.00,,SKC,0.00,VWS V15.00,2015-04-18 05:24:00,
2015-04-18 01:25:00,75.0,72.2,30.03,WNW,292,2.0,3.0,91,0.00,,SKC,0.00,VWS V15.00,2015-04-18 05:25:00,
2015-04-18 01:26:00,75.0,72.2,30.03,WNW,292,2.0,3.0,91,0.00,,SKC,0.00,VWS V15.00,2015-04-18 05:26:00,
2015-04-18 01:27:00,75.0,72.2,30.02,WNW,292,2.0,2.0,91,0.00,,SKC,0.00,VWS V15.00,2015-04-18 05:27:00,
2015-04-18 01:28:00,75.0,72.5,30.02,WNW,292,3.0,3.0,92,0.00,,SKC,0.00,VWS V15.00,2015-04-18 05:28:00,
2015-04-18 01:29:00,75.0,72.5,30.02,WNW,292,2.0,3.0,92,0.00,,SKC,0.00,VWS V15.00,2015-04-18 05:29:00,
2015-04-18 01:30:00,75.0,72.5,30.02,WNW,292,2.0,3.0,92,0.00,,SKC,0.00,VWS V15.00,2015-04-18 05:30:00,
2015-04-18 01:40:00,75.0,72.5,30.02,WSW,247,3.0,4.0,92,0.00,,SKC,0.00,VWS V15.00,2015-04-18 05:40:00,
2015-04-18 01:45:00,75.0,72.5,30.02,WSW,247,3.0,4.0,92,0.00,,SKC,0.00,VWS V15.00,2015-04-18 05:45:00,
2015-04-18 01:50:00,75.0,72.5,30.03,WSW,247,1.0,3.0,92,0.00,,SKC,0.00,VWS V15.00,2015-04-18 05:50:00,
2015-04-18 01:55:00,75.0,72.5,30.02,West,270,3.0,3.0,92,0.00,,SKC,0.00,VWS V15.00,2015-04-18 05:55:00,
2015-04-18 02:00:00,74.0,71.8,30.02,WNW,292,2.0,3.0,93,0.00,,SKC,0.00,VWS V15.00,2015-04-18 06:00:00,
2015-04-18 02:05:00,74.0,71.8,30.02,NNW,337,3.0,3.0,93,0.00,,SKC,0.00,VWS V15.00,2015-04-18 06:05:00,
2015-04-18 02:10:00,74.0,71.8,30.02,NNW,337,3.0,4.0,93,0.00,,SKC,0.00,VWS V15.00,2015-04-18 06:10:00,
2015-04-18 02:15:00,74.0,71.8,30.02,NNW,337,4.0,4.0,93,0.00,,SKC,0.00,VWS V15.00,2015-04-18 06:15:00,
2015-04-18 02:20:00,74.0,72.2,30.01,NNW,337,3.0,3.0,94,0.00,,SKC,0.00,VWS V15.00,2015-04-18 06:20:00,
2015-04-18 02:25:00,74.0,72.2,30.01,NNW,337,3.0,4.0,94,0.00,,SKC,0.00,VWS V15.00,2015-04-18 06:25:00,
2015-04-18 02:30:00,74.0,72.2,30.01,NNW,337,2.0,2.0,94,0.00,,SKC,0.00,VWS V15.00,2015-04-18 06:30:00,
2015-04-18 02:35:00,74.0,72.2,30.00,NNW,337,2.0,2.0,94,0.00,,SKC,0.00,VWS V15.00,2015-04-18 06:35:00,
2015-04-18 02:40:00,74.0,72.2,30.00,North,360,3.0,3.0,94,0.00,,SKC,0.00,VWS V15.00,2015-04-18 06:40:00,
2015-04-18 02:45:00,74.0,72.2,30.00,North,360,3.0,3.0,94,0.00,,SKC,0.00,VWS V15.00,2015-04-18 06:45:00,
2015-04-18 02:50:00,74.0,72.2,30.00,North,360,1.0,2.0,94,0.00,,SKC,0.00,VWS V15.00,2015-04-18 06:50:00,
2015-04-18 02:55:00,74.0,72.2,30.00,NNE,22,3.0,3.0,94,0.00,,SKC,0.00,VWS V15.00,2015-04-18 06:55:00,
2015-04-18 03:00:00,74.0,72.2,30.00,NNE,22,2.0,2.0,94,0.00,,SKC,0.00,VWS V15.00,2015-04-18 07:00:00,
2015-04-18 03:04:00,74.0,71.8,29.99,NNE,22,0.0,0.0,93,0.00,,SKC,0.00,VWS V15.00,2015-04-18 07:04:00,
2015-04-18 03:09:00,74.0,71.8,29.99,NNE,22,0.0,0.0,93,0.00,,SKC,0.00,VWS V15.00,2015-04-18 07:09:00,
2015-04-18 03:14:00,74.0,71.8,29.99,NNE,22,0.0,0.0,93,0.00,,SKC,0.00,VWS V15.00,2015-04-18 07:14:00,
2015-04-18 03:19:00,74.0,71.8,29.99,NNE,22,0.0,0.0,93,0.00,,SKC,0.00,VWS V15.00,2015-04-18 07:19:00,
2015-04-18 03:24:00,74.0,72.2,29.99,South,180,1.0,1.0,94,0.00,,SKC,0.00,VWS V15.00,2015-04-18 07:24:00,
2015-04-18 03:29:00,74.0,72.2,29.99,South,180,4.0,4.0,94,0.00,,SKC,0.00,VWS V15.00,2015-04-18 07:29:00,
2015-04-18 03:34:00,74.0,72.2,29.99,South,180,2.0,2.0,94,0.00,,SKC,0.00,VWS V15.00,2015-04-18 07:34:00,
2015-04-18 03:39:00,73.0,71.2,29.99,South,180,2.0,2.0,94,0.00,,SKC,0.00,VWS V15.00,2015-04-18 07:39:00,
2015-04-18 03:44:00,73.0,71.5,29.98,South,180,1.0,2.0,95,0.00,,SKC,0.00,VWS V15.00,2015-04-18 07:44:00,
2015-04-18 03:49:00,73.0,71.5,29.99,South,180,2.0,2.0,95,0.00,,SKC,0.00,VWS V15.00,2015-04-18 07:49:00,
2015-04-18 03:54:00,73.0,71.5,29.98,ESE,112,2.0,2.0,95,0.00,,SKC,0.00,VWS V15.00,2015-04-18 07:54:00,
2015-04-18 03:59:00,73.0,71.5,29.98,ESE,112,2.0,2.0,95,0.00,,SKC,0.00,VWS V15.00,2015-04-18 07:59:00,
2015-04-18 04:04:00,73.0,71.5,29.99,ESE,112,3.0,3.0,95,0.00,,SKC,0.00,VWS V15.00,2015-04-18 08:04:00,
2015-04-18 04:09:00,73.0,71.5,29.98,SE,135,2.0,2.0,95,0.00,,SKC,0.00,VWS V15.00,2015-04-18 08:09:00,
2015-04-18 04:14:00,73.0,71.8,29.98,SE,135,4.0,4.0,96,0.00,,SKC,0.00,VWS V15.00,2015-04-18 08:14:00,
2015-04-18 04:19:00,73.0,71.8,29.98,ESE,112,3.0,4.0,96,0.00,,SKC,0.00,VWS V15.00,2015-04-18 08:19:00,
2015-04-18 04:24:00,73.0,71.8,29.97,ESE,112,2.0,3.0,96,0.00,,SKC,0.00,VWS V15.00,2015-04-18 08:24:00,
2015-04-18 04:29:00,73.0,71.8,29.97,ESE,112,3.0,3.0,96,0.00,,SKC,0.00,VWS V15.00,2015-04-18 08:29:00,
2015-04-18 04:34:00,73.0,71.8,29.97,ESE,112,3.0,4.0,96,0.00,,SKC,0.00,VWS V15.00,2015-04-18 08:34:00,
2015-04-18 04:39:00,73.0,71.8,29.97,ESE,112,3.0,3.0,96,0.00,,SKC,0.00,VWS V15.00,2015-04-18 08:39:00,
2015-04-18 04:44:00,73.0,71.8,29.97,ESE,112,3.0,3.0,96,0.00,,SKC,0.00,VWS V15.00,2015-04-18 08:44:00,
2015-04-18 04:49:00,73.0,71.8,29.98,ESE,112,3.0,4.0,96,0.00,,SKC,0.00,VWS V15.00,2015-04-18 08:49:00,
2015-04-18 04:54:00,72.0,70.8,29.97,ESE,112,2.0,3.0,96,0.00,,SKC,0.00,VWS V15.00,2015-04-18 08:54:00,
2015-04-18 04:59:00,72.0,70.8,29.97,ESE,112,3.0,3.0,96,0.00,,SKC,0.00,VWS V15.00,2015-04-18 08:59:00,
2015-04-18 05:04:00,72.0,71.1,29.97,ESE,112,4.0,5.0,97,0.00,,SKC,0.00,VWS V15.00,2015-04-18 09:04:00,
2015-04-18 05:09:00,72.0,71.1,29.97,ESE,112,5.0,5.0,97,0.00,,SKC,0.00,VWS V15.00,2015-04-18 09:09:00,
2015-04-18 05:14:00,72.0,71.1,29.97,ESE,112,4.0,4.0,97,0.00,,SKC,0.00,VWS V15.00,2015-04-18 09:14:00,
2015-04-18 05:19:00,72.0,71.1,29.97,SE,135,4.0,4.0,97,0.00,,SKC,0.00,VWS V15.00,2015-04-18 09:19:00,
2015-04-18 05:24:00,72.0,71.1,29.97,SE,135,4.0,4.0,97,0.00,,SKC,0.00,VWS V15.00,2015-04-18 09:24:00,
2015-04-18 05:29:00,72.0,71.1,29.97,SE,135,5.0,5.0,97,0.00,,SKC,0.00,VWS V15.00,2015-04-18 09:29:00,
2015-04-18 05:34:00,72.0,71.1,29.98,SE,135,4.0,4.0,97,0.00,,SKC,0.00,VWS V15.00,2015-04-18 09:34:00,
2015-04-18 05:44:00,72.0,71.1,29.97,SSE,157,6.0,6.0,97,0.00,,SKC,0.00,VWS V15.00,2015-04-18 09:44:00,
2015-04-18 05:49:00,72.0,71.1,29.97,SE,135,6.0,6.0,97,0.00,,SKC,0.00,VWS V15.00,2015-04-18 09:49:00,
2015-04-18 05:54:00,72.0,71.1,29.97,SE,135,5.0,5.0,97,0.00,,SKC,0.00,VWS V15.00,2015-04-18 09:54:00,
2015-04-18 05:59:00,72.0,71.1,29.97,SSE,157,7.0,7.0,97,0.00,,SKC,0.00,VWS V15.00,2015-04-18 09:59:00,
2015-04-18 06:04:00,72.0,71.1,29.98,SE,135,5.0,5.0,97,0.00,,SKC,0.00,VWS V15.00,2015-04-18 10:04:00,
2015-04-18 06:09:00,72.0,71.1,29.98,SE,135,7.0,7.0,97,0.00,,SKC,0.00,VWS V15.00,2015-04-18 10:09:00,
2015-04-18 06:14:00,72.0,71.1,29.98,SSE,157,4.0,4.0,97,0.00,,SKC,0.00,VWS V15.00,2015-04-18 10:14:00,
2015-04-18 06:19:00,72.0,71.1,29.98,SE,135,5.0,6.0,97,0.00,,SKC,0.00,VWS V15.00,2015-04-18 10:19:00,
2015-04-18 06:24:00,72.0,71.1,29.98,SSE,157,6.0,6.0,97,0.00,,SKC,0.00,VWS V15.00,2015-04-18 10:24:00,
2015-04-18 06:29:00,72.0,71.1,29.97,SE,135,5.0,6.0,97,0.00,,SKC,0.00,VWS V15.00,2015-04-18 10:29:00,
2015-04-18 06:34:00,72.0,71.1,29.97,SSE,157,9.0,10.0,97,0.00,,SKC,0.00,VWS V15.00,2015-04-18 10:34:00,
2015-04-18 06:39:00,72.0,71.1,29.98,SSE,157,7.0,8.0,97,0.00,,SKC,0.00,VWS V15.00,2015-04-18 10:39:00,
2015-04-18 06:44:00,72.0,71.1,29.97,SSE,157,8.0,8.0,97,0.00,,SKC,0.00,VWS V15.00,2015-04-18 10:44:00,
2015-04-18 06:49:00,72.0,71.1,29.98,SSE,157,5.0,6.0,97,0.00,,SKC,0.00,VWS V15.00,2015-04-18 10:49:00,
2015-04-18 06:54:00,72.0,71.1,29.98,SE,135,5.0,6.0,97,0.00,,SKC,0.00,VWS V15.00,2015-04-18 10:54:00,
2015-04-18 06:59:00,72.0,71.1,29.99,SSE,157,4.0,4.0,97,63.87,,SKC,0.00,VWS V15.00,2015-04-18 10:59:00,
2015-04-18 07:04:00,72.0,71.1,29.99,South,180,5.0,5.0,97,0.00,,SKC,0.00,VWS V15.00,2015-04-18 11:04:00,
2015-04-18 07:09:00,72.0,71.1,29.98,SE,135,3.0,3.0,97,0.00,,SKC,0.00,VWS V15.00,2015-04-18 11:09:00,
2015-04-18 07:14:00,72.0,71.4,29.99,SE,135,5.0,6.0,98,0.00,,SKC,0.00,VWS V15.00,2015-04-18 11:14:00,
2015-04-18 07:19:00,72.0,71.4,29.98,SE,135,6.0,7.0,98,0.00,,SKC,0.00,VWS V15.00,2015-04-18 11:19:00,
2015-04-18 07:24:00,72.0,71.4,29.99,SE,135,6.0,7.0,98,0.00,,SKC,0.00,VWS V15.00,2015-04-18 11:24:00,
2015-04-18 07:29:00,72.0,71.4,29.99,SE,135,5.0,7.0,98,0.00,,SKC,0.00,VWS V15.00,2015-04-18 11:29:00,
2015-04-18 07:34:00,72.0,71.4,29.98,SE,135,5.0,7.0,98,0.00,,SKC,0.00,VWS V15.00,2015-04-18 11:34:00,
2015-04-18 07:39:00,73.0,72.4,29.99,SE,135,7.0,8.0,98,0.00,,SKC,0.00,VWS V15.00,2015-04-18 11:39:00,
2015-04-18 07:44:00,73.0,72.4,29.99,SSE,157,8.0,9.0,98,0.00,,SKC,0.00,VWS V15.00,2015-04-18 11:44:00,
2015-04-18 07:49:00,73.0,72.4,29.99,SSE,157,5.0,7.0,98,0.00,,SKC,0.00,VWS V15.00,2015-04-18 11:49:00,
2015-04-18 07:54:00,73.0,72.4,29.99,SSE,157,7.0,7.0,98,0.00,,SKC,0.00,VWS V15.00,2015-04-18 11:54:00,
2015-04-18 07:59:00,73.0,72.4,29.99,SSE,157,5.0,7.0,98,63.87,,SKC,0.00,VWS V15.00,2015-04-18 11:59:00,
2015-04-18 08:04:00,73.0,72.4,29.99,SE,135,3.0,7.0,98,0.00,,SKC,0.00,VWS V15.00,2015-04-18 12:04:00,
2015-04-18 08:09:00,74.0,73.4,29.98,SSE,157,7.0,7.0,98,0.00,,SKC,0.00,VWS V15.00,2015-04-18 12:09:00,
2015-04-18 08:14:00,74.0,73.4,29.99,SE,135,7.0,7.0,98,0.00,,SKC,0.00,VWS V15.00,2015-04-18 12:14:00,
2015-04-18 08:19:00,74.0,73.4,29.99,SE,135,5.0,6.0,98,0.00,,SKC,0.00,VWS V15.00,2015-04-18 12:19:00,
2015-04-18 08:24:00,75.0,74.1,29.99,SE,135,4.0,5.0,97,0.00,,SKC,0.00,VWS V15.00,2015-04-18 12:24:00,
2015-04-18 08:29:00,75.0,74.1,29.99,South,180,6.0,6.0,97,0.00,,SKC,0.00,VWS V15.00,2015-04-18 12:29:00,
2015-04-18 08:34:00,75.0,74.1,29.99,SSE,157,6.0,7.0,97,0.00,,SKC,0.00,VWS V15.00,2015-04-18 12:34:00,
2015-04-18 08:39:00,75.0,73.8,29.99,SE,135,1.0,4.0,96,0.00,,SKC,0.00,VWS V15.00,2015-04-18 12:39:00,
2015-04-18 08:44:00,76.0,74.8,29.99,South,180,6.0,6.0,96,0.00,,SKC,0.00,VWS V15.00,2015-04-18 12:44:00,
2015-04-18 08:49:00,77.0,75.5,29.99,South,180,0.0,1.0,95,0.00,,SKC,0.00,VWS V15.00,2015-04-18 12:49:00,
2015-04-18 08:54:00,77.0,75.5,29.99,SSW,202,5.0,5.0,95,0.00,,SKC,0.00,VWS V15.00,2015-04-18 12:54:00,
2015-04-18 08:59:00,78.0,76.1,29.99,SW,225,2.0,4.0,94,65.87,,SKC,0.00,VWS V15.00,2015-04-18 12:59:00,
2015-04-18 09:04:00,78.0,75.5,30.00,SSE,157,5.0,5.0,92,0.00,,SKC,0.00,VWS V15.00,2015-04-18 13:04:00,
2015-04-18 09:09:00,78.0,74.8,30.00,South,180,4.0,4.0,90,0.00,,SKC,0.00,VWS V15.00,2015-04-18 13:09:00,
2015-04-18 09:14:00,79.0,75.5,30.00,SSW,202,4.0,4.0,89,0.00,,SKC,0.00,VWS V15.00,2015-04-18 13:14:00,
2015-04-18 09:19:00,79.0,74.8,29.99,NNE,22,1.0,3.0,87,0.00,,SKC,0.00,VWS V15.00,2015-04-18 13:19:00,
2015-04-18 09:24:00,79.0,74.5,30.00,SSW,202,4.0,7.0,86,0.00,,SKC,0.00,VWS V15.00,2015-04-18 13:24:00,
2015-04-18 09:29:00,79.0,74.1,29.99,South,180,4.0,8.0,85,0.00,,SKC,0.00,VWS V15.00,2015-04-18 13:29:00,
2015-04-18 09:34:00,79.0,73.8,30.00,WSW,247,1.0,3.0,84,0.00,,SKC,0.00,VWS V15.00,2015-04-18 13:34:00,
2015-04-18 09:39:00,80.0,74.4,30.00,SSW,202,1.0,9.0,83,0.00,,SKC,0.00,VWS V15.00,2015-04-18 13:39:00,
2015-04-18 09:44:00,81.0,74.6,30.00,SSE,157,2.0,2.0,81,0.00,,SKC,0.00,VWS V15.00,2015-04-18 13:44:00,
2015-04-18 09:49:00,82.0,74.8,30.00,SSW,202,2.0,5.0,79,0.00,,SKC,0.00,VWS V15.00,2015-04-18 13:49:00,
2015-04-18 09:54:00,82.0,74.5,30.00,SSW,202,3.0,5.0,78,0.00,,SKC,0.00,VWS V15.00,2015-04-18 13:54:00,
2015-04-18 09:59:00,82.0,73.7,30.00,WSW,247,1.0,5.0,76,69.87,,SKC,0.00,VWS V15.00,2015-04-18 13:59:00,
2015-04-18 10:04:00,82.0,73.3,30.00,SSE,157,1.0,3.0,75,0.00,,SKC,0.00,VWS V15.00,2015-04-18 14:04:00,
2015-04-18 10:09:00,82.0,73.3,30.00,SSW,202,2.0,4.0,75,0.00,,SKC,0.00,VWS V15.00,2015-04-18 14:09:00,
2015-04-18 10:14:00,82.0,72.9,30.00,SSE,157,4.0,9.0,74,0.00,,SKC,0.00,VWS V15.00,2015-04-18 14:14:00,
2015-04-18 10:24:00,83.0,73.1,30.01,WNW,292,0.0,3.0,72,0.00,,SKC,0.00,VWS V15.00,2015-04-18 14:24:00,
2015-04-18 10:29:00,84.0,74.0,30.01,SW,225,4.0,10.0,72,0.00,,SKC,0.00,VWS V15.00,2015-04-18 14:29:00,
2015-04-18 10:34:00,83.0,73.1,30.01,NW,315,4.0,6.0,72,0.00,,SKC,0.00,VWS V15.00,2015-04-18 14:34:00,
2015-04-18 10:39:00,82.0,72.1,30.02,WSW,247,1.0,6.0,72,0.00,,SKC,0.00,VWS V15.00,2015-04-18 14:39:00,
2015-04-18 10:44:00,83.0,73.1,30.02,SW,225,4.0,8.0,72,0.00,,SKC,0.00,VWS V15.00,2015-04-18 14:44:00,
2015-04-18 10:49:00,83.0,72.6,30.02,SW,225,4.0,8.0,71,0.00,,SKC,0.00,VWS V15.00,2015-04-18 14:49:00,
2015-04-18 10:54:00,82.0,71.7,30.02,SSE,157,2.0,4.0,71,0.00,,SKC,0.00,VWS V15.00,2015-04-18 14:54:00,
2015-04-18 10:59:00,83.0,72.6,30.02,WNW,292,0.0,6.0,71,71.87,,SKC,0.00,VWS V15.00,2015-04-18 14:59:00,
2015-04-18 11:04:00,84.0,72.7,30.02,South,180,1.0,4.0,69,0.00,,SKC,0.00,VWS V15.00,2015-04-18 15:04:00,
2015-04-18 11:09:00,84.0,71.9,30.02,SSW,202,2.0,6.0,67,0.00,,SKC,0.00,VWS V15.00,2015-04-18 15:09:00,
2015-04-18 11:14:00,85.0,72.8,30.02,ESE,112,2.0,4.0,67,0.00,,SKC,0.00,VWS V15.00,2015-04-18 15:14:00,
2015-04-18 11:19:00,85.0,72.8,30.03,SE,135,2.0,8.0,67,0.00,,SKC,0.00,VWS V15.00,2015-04-18 15:19:00,
2015-04-18 11:24:00,85.0,72.8,30.03,West,270,3.0,3.0,67,0.00,,SKC,0.00,VWS V15.00,2015-04-18 15:24:00,
2015-04-18 11:29:00,85.0,72.8,30.03,SSE,157,2.0,5.0,67,0.00,,SKC,0.00,VWS V15.00,2015-04-18 15:29:00,
2015-04-18 11:34:00,85.0,73.3,30.03,WSW,247,8.0,8.0,68,0.00,,SKC,0.00,VWS V15.00,2015-04-18 15:34:00,
2015-04-18 11:39:00,84.0,72.7,30.03,SSW,202,1.0,2.0,69,0.00,,SKC,0.00,VWS V15.00,2015-04-18 15:39:00,
2015-04-18 11:44:00,84.0,73.2,30.03,North,360,0.0,4.0,70,0.00,,SKC,0.00,VWS V15.00,2015-04-18 15:44:00,
2015-04-18 11:49:00,84.0,72.7,30.04,WSW,247,5.0,5.0,69,0.00,,SKC,0.00,VWS V15.00,2015-04-18 15:49:00,
2015-04-18 11:54:00,84.0,72.7,30.04,South,180,3.0,7.0,69,0.00,,SKC,0.00,VWS V15.00,2015-04-18 15:54:00,
2015-04-18 11:59:00,84.0,72.7,30.03,WSW,247,5.0,8.0,69,73.87,,SKC,0.00,VWS V15.00,2015-04-18 15:59:00,
2015-04-18 12:04:00,83.0,72.2,30.03,ESE,112,1.0,3.0,70,0.00,,SKC,0.00,VWS V15.00,2015-04-18 16:04:00,
2015-04-18 12:09:00,83.0,72.6,30.03,SSW,202,3.0,6.0,71,0.00,,SKC,0.00,VWS V15.00,2015-04-18 16:09:00,
2015-04-18 12:14:00,83.0,73.1,30.03,ESE,112,1.0,2.0,72,0.00,,SKC,0.00,VWS V15.00,2015-04-18 16:14:00,
2015-04-18 12:19:00,83.0,73.1,30.03,SW,225,5.0,9.0,72,0.00,,SKC,0.00,VWS V15.00,2015-04-18 16:19:00,
2015-04-18 12:23:00,84.0,74.0,30.03,WSW,247,5.0,10.0,72,0.00,,SKC,0.00,VWS V15.00,2015-04-18 16:23:00,
2015-04-18 12:28:00,84.0,73.6,30.03,ESE,112,3.0,7.0,71,0.00,,SKC,0.00,VWS V15.00,2015-04-18 16:28:00,
2015-04-18 12:33:00,85.0,73.7,30.02,SW,225,11.0,11.0,69,0.00,,SKC,0.00,VWS V15.00,2015-04-18 16:33:00,
2015-04-18 12:39:00,84.0,72.3,30.02,SW,225,3.0,8.0,68,0.00,,SKC,0.00,VWS V15.00,2015-04-18 16:39:00,
2015-04-18 12:44:00,85.0,72.8,30.02,SSE,157,4.0,7.0,67,0.00,,SKC,0.00,VWS V15.00,2015-04-18 16:44:00,
2015-04-18 12:49:00,85.0,72.4,30.02,West,270,8.0,8.0,66,0.00,,SKC,0.00,VWS V15.00,2015-04-18 16:49:00,
2015-04-18 12:53:00,85.0,71.9,30.02,West,270,6.0,8.0,65,0.00,,SKC,0.00,VWS V15.00,2015-04-18 16:53:00,
2015-04-18 12:58:00,85.0,71.9,30.01,NNE,22,2.0,7.0,65,73.87,,SKC,0.00,VWS V15.00,2015-04-18 16:58:00,
2015-04-18 13:03:00,85.0,71.5,30.01,SSW,202,10.0,17.0,64,0.00,,SKC,0.00,VWS V15.00,2015-04-18 17:03:00,
2015-04-18 13:09:00,84.0,70.5,30.01,SSW,202,5.0,9.0,64,0.00,,SKC,0.00,VWS V15.00,2015-04-18 17:09:00,
2015-04-18 13:14:00,84.0,70.5,30.01,SSE,157,2.0,13.0,64,0.00,,SKC,0.00,VWS V15.00,2015-04-18 17:14:00,
2015-04-18 13:19:00,85.0,71.5,30.01,SSE,157,2.0,8.0,64,0.00,,SKC,0.00,VWS V15.00,2015-04-18 17:19:00,
2015-04-18 13:24:00,85.0,70.5,30.01,SW,225,5.0,7.0,62,0.00,,SKC,0.00,VWS V15.00,2015-04-18 17:24:00,
2015-04-18 13:29:00,86.0,71.0,30.01,SSW,202,4.0,10.0,61,0.00,,SKC,0.00,VWS V15.00,2015-04-18 17:29:00,
2015-04-18 13:34:00,87.0,71.4,30.01,SSW,202,3.0,15.0,60,0.00,,SKC,0.00,VWS V15.00,2015-04-18 17:34:00,
2015-04-18 13:39:00,86.0,71.0,30.01,SSW,202,2.0,5.0,61,0.00,,SKC,0.00,VWS V15.00,2015-04-18 17:39:00,
2015-04-18 13:44:00,86.0,71.5,30.00,WSW,247,8.0,10.0,62,0.00,,SKC,0.00,VWS V15.00,2015-04-18 17:44:00,
2015-04-18 13:49:00,85.0,71.0,30.01,SSW,202,4.0,6.0,63,0.00,,SKC,0.00,VWS V15.00,2015-04-18 17:49:00,
2015-04-18 13:54:00,86.0,71.9,30.01,WSW,247,7.0,15.0,63,0.00,,SKC,0.00,VWS V15.00,2015-04-18 17:54:00,
2015-04-18 13:59:00,86.0,71.5,29.99,ESE,112,3.0,11.0,62,74.87,,SKC,0.00,VWS V15.00,2015-04-18 17:59:00,
2015-04-18 14:04:00,86.0,71.0,29.99,WSW,247,9.0,9.0,61,0.00,,SKC,0.00,VWS V15.00,2015-04-18 18:04:00,
2015-04-18 14:09:00,87.0,71.4,29.99,WSW,247,4.0,9.0,60,0.00,,SKC,0.00,VWS V15.00,2015-04-18 18:09:00,
2015-04-18 14:14:00,86.0,70.5,29.99,ESE,112,0.0,5.0,60,0.00,,SKC,0.00,VWS V15.00,2015-04-18 18:14:00,
2015-04-18 14:19:00,87.0,71.4,29.99,SE,135,4.0,11.0,60,0.00,,SKC,0.00,VWS V15.00,2015-04-18 18:19:00,
2015-04-18 14:24:00,87.0,71.4,29.99,SW,225,1.0,10.0,60,0.00,,SKC,0.00,VWS V15.00,2015-04-18 18:24:00,
2015-04-18 14:28:00,87.0,71.4,29.98,SSW,202,0.0,3.0,60,0.00,,SKC,0.00,VWS V15.00,2015-04-18 18:28:00,
2015-04-18 14:33:00,87.0,71.4,29.99,SSW,202,11.0,14.0,60,0.00,,SKC,0.00,VWS V15.00,2015-04-18 18:33:00,
2015-04-18 14:38:00,87.0,71.4,29.98,SSE,157,4.0,7.0,60,0.00,,SKC,0.00,VWS V15.00,2015-04-18 18:38:00,
2015-04-18 14:43:00,87.0,71.4,29.98,SE,135,3.0,6.0,60,0.00,,SKC,0.00,VWS V15.00,2015-04-18 18:43:00,
2015-04-18 14:48:00,87.0,70.9,29.98,WSW,247,9.0,11.0,59,0.00,,SKC,0.00,VWS V15.00,2015-04-18 18:48:00,
2015-04-18 14:53:00,87.0,70.4,29.97,SW,225,6.0,7.0,58,0.00,,SKC,0.00,VWS V15.00,2015-04-18 18:53:00,
2015-04-18 14:58:00,87.0,70.4,29.98,SE,135,1.0,7.0,58,74.87,,SKC,0.00,VWS V15.00,2015-04-18 18:58:00,
2015-04-18 15:03:00,87.0,69.9,29.98,SSE,157,2.0,8.0,57,0.00,,SKC,0.00,VWS V15.00,2015-04-18 19:03:00,
2015-04-18 15:08:00,87.0,70.4,29.97,South,180,0.0,6.0,58,0.00,,SKC,0.00,VWS V15.00,2015-04-18 19:08:00,
2015-04-18 15:13:00,87.0,70.4,29.97,SSW,202,3.0,10.0,58,0.00,,SKC,0.00,VWS V15.00,2015-04-18 19:13:00,
2015-04-18 15:18:00,87.0,70.4,29.97,South,180,7.0,9.0,58,0.00,,SKC,0.00,VWS V15.00,2015-04-18 19:18:00,
2015-04-18 15:23:00,86.0,70.0,29.97,West,270,11.0,11.0,59,0.00,,SKC,0.00,VWS V15.00,2015-04-18 19:23:00,
2015-04-18 15:28:00,86.0,70.5,29.97,SSW,202,5.0,7.0,60,0.00,,SKC,0.00,VWS V15.00,2015-04-18 19:28:00,
2015-04-18 15:33:00,86.0,70.5,29.96,SSW,202,4.0,5.0,60,0.00,,SKC,0.00,VWS V15.00,2015-04-18 19:33:00,
2015-04-18 15:38:00,86.0,70.0,29.96,SSW,202,3.0,7.0,59,0.00,,SKC,0.00,VWS V15.00,2015-04-18 19:38:00,
2015-04-18 15:43:00,86.0,70.0,29.96,SW,225,9.0,11.0,59,0.00,,SKC,0.00,VWS V15.00,2015-04-18 19:43:00,
2015-04-18 15:48:00,86.0,70.0,29.96,WSW,247,7.0,12.0,59,0.00,,SKC,0.00,VWS V15.00,2015-04-18 19:48:00,
2015-04-18 15:53:00,86.0,71.0,29.95,ESE,112,2.0,8.0,61,0.00,,SKC,0.00,VWS V15.00,2015-04-18 19:53:00,
2015-04-18 15:58:00,86.0,71.0,29.96,SSW,202,5.0,5.0,61,0.00,,SKC,0.00,VWS V15.00,2015-04-18 19:58:00,
2015-04-18 16:03:00,86.0,71.0,29.95,SSE,157,5.0,8.0,61,0.00,,SKC,0.00,VWS V15.00,2015-04-18 20:03:00,
2015-04-18 16:08:00,87.0,71.9,29.95,East,90,0.0,3.0,61,0.00,,SKC,0.00,VWS V15.00,2015-04-18 20:08:00,
2015-04-18 16:13:00,86.0,71.0,29.95,SW,225,7.0,9.0,61,0.00,,SKC,0.00,VWS V15.00,2015-04-18 20:13:00,
2015-04-18 16:18:00,86.0,71.0,29.95,SSW,202,1.0,9.0,61,0.00,,SKC,0.00,VWS V15.00,2015-04-18 20:18:00,
2015-04-18 16:23:00,86.0,71.5,29.95,SSE,157,2.0,4.0,62,0.00,,SKC,0.00,VWS V15.00,2015-04-18 20:23:00,
2015-04-18 16:28:00,86.0,71.0,29.94,SW,225,0.0,4.0,61,0.00,,SKC,0.00,VWS V15.00,2015-04-18 20:28:00,
2015-04-18 16:33:00,86.0,71.0,29.95,West,270,8.0,10.0,61,0.00,,SKC,0.00,VWS V15.00,2015-04-18 20:33:00,
2015-04-18 16:38:00,86.0,71.0,29.94,WSW,247,0.0,1.0,61,0.00,,SKC,0.00,VWS V15.00,2015-04-18 20:38:00,
2015-04-18 16:43:00,85.0,70.5,29.94,SW,225,6.0,11.0,62,0.00,,SKC,0.00,VWS V15.00,2015-04-18 20:43:00,
2015-04-18 16:48:00,85.0,70.5,29.94,SW,225,6.0,14.0,62,0.00,,SKC,0.00,VWS V15.00,2015-04-18 20:48:00,
2015-04-18 16:53:00,85.0,71.0,29.94,SSW,202,3.0,7.0,63,0.00,,SKC,0.00,VWS V15.00,2015-04-18 20:53:00,
2015-04-18 16:58:00,85.0,71.0,29.94,SE,135,2.0,4.0,63,74.87,,SKC,0.00,VWS V15.00,2015-04-18 20:58:00,
2015-04-18 17:03:00,85.0,71.0,29.94,WSW,247,8.0,8.0,63,0.00,,SKC,0.00,VWS V15.00,2015-04-18 21:03:00,
2015-04-18 17:08:00,85.0,71.0,29.94,WSW,247,7.0,7.0,63,0.00,,SKC,0.00,VWS V15.00,2015-04-18 21:08:00,
2015-04-18 17:13:00,85.0,71.9,29.94,WNW,292,2.0,8.0,65,0.00,,SKC,0.00,VWS V15.00,2015-04-18 21:13:00,
2015-04-18 17:18:00,84.0,71.4,29.94,WSW,247,4.0,4.0,66,0.00,,SKC,0.00,VWS V15.00,2015-04-18 21:18:00,